Skip Page Navigation
NASA JPL Caltech
NASA Logo - Jet Propulsion Laboratory + View the NASA Portal
+ Center for Near-Earth Object Studies
JPL Home Earth Solar System Stars & Galaxies Technology
JPL Solar System Dynamics
BODIES ORBITS EPHEMERIDES TOOLS PHYSICAL DATA DISCOVERY FAQ SITE MAP
JPL Small-Body Database Browser
Search: [ help ]  
115052 (2003 RD6)
Classification: Amor [NEO]          SPK-ID: 2115052
Ephemeris | Orbit Diagram | Orbital Elements | Mission Design | Physical Parameters | Discovery Circumstances | Close-Approach Data ]

[ show orbit diagram ]
Orbital Elements at Epoch 2459200.5 (2020-Dec-17.0) TDB
Reference: JPL 248 (heliocentric ecliptic J2000)
 Element Value Uncertainty (1-sigma)   Units 
e .3182977366439448 2.0147e-08  
a 1.668559368059978 2.0312e-09 au
q 1.137460697750436 3.3232e-08 au
i 31.32215776756798 6.2455e-06 deg
node 190.5245534948261 4.7165e-06 deg
peri 88.20713154757156 1.0016e-05 deg
M 58.519510070431 7.3081e-06 deg
tp 2459072.529725035142
(2020-Aug-11.02972504)
1.5872e-05 TDB
period 787.2468332681239
2.16
1.4375e-06
3.936e-09
d
yr
n .4572898674047631 8.3502e-10 deg/d
Q 2.199658038369519 2.6777e-09 au
  Orbit Determination Parameters
   # obs. used (total)      1281  
   data-arc span      15295 days (41.88 yr)  
   first obs. used      1979-02-23  
   last obs. used      2021-01-08  
   planetary ephem.      DE441  
   SB-pert. ephem.      SB441-N16  
   condition code      0  
   norm. resid. RMS      .45322  
   source      ORB  
   producer      Otto Matic  
   solution date      2021-Apr-18 06:26:14  

Additional Information
 Earth MOID = .394394 au 
 Jupiter MOID = 3.2397 au 
 T_jup = 4.036 
[ show covariance matrix ]

Ephemeris | Orbit Diagram | Orbital Elements | Mission Design | Physical Parameters | Discovery Circumstances | Close-Approach Data ]

Physical Parameter Table
Parameter Symbol Value Units Sigma Reference Notes
absolute magnitude H 17.41   n/a MPCxxxxx  
rotation period rot_per 12.08 h n/a LCDB (Rev. 2020-October); Warner et al., 2009 Result based on less than full coverage, so that the period may be wrong by 30 percent or so.
Published Reference List:
[Warner, B.D.; Stephens, R.D. (2019) Minor Planet Bull. 46, 27-40.]

115052 (2003 RD6)          Discovered 2003-Sep-05 by LINEAR at Socorro
Reference: 20051019/Numbers.arcLast Updated: 2005-10-26

[ show close-approach data ]
Ephemeris | Orbit Diagram | Orbital Elements | Mission Design | Physical Parameters | Discovery Circumstances | Close-Approach Data ]
ABOUT SSD CREDITS/AWARDS PRIVACY/COPYRIGHT GLOSSARY LINKS
FirstGov 2021-May-07 19:32 UT
(server date/time)  
NASA Home Page
Site Manager:   Ryan S. Park
Webmaster  Alan B. Chamberlin